Home   Weather   Rørvik   Past weeks
Flag for Norway

Past Weather in Rørvik, Norway — Yesterday and Last 2 Weeks

Now
43 °F

Light rain. Passing clouds.


Feels Like: 36 °F
Forecast: 47 / 44 °F
Wind: 12 mph from Southeast

Location: Rorvik/Ryum

Current Time: Oct 17, 2019 at 8:23:32 am

Latest Report: Oct 17, 2019 at 7:20 am


Visibility: N/A

Pressure: 29.74 "Hg

Humidity: 76%

Dew Point: 36 °F

Location of RørvikLocation

Past Weather in Rørvik — Graph

°F

Rørvik Temperature Yesterday

Maximum temperature yesterday: 46 °F (at 11:50 am)
Minimum temperature yesterday: 36 °F (at 6:20 am)
Average temperature yesterday: 43 °F

High & Low Weather Summary for the Past Weeks

 TemperatureHumidityPressure
High48 °F (Oct 2, 12:50 pm)100% (Oct 2, 6:20 am)30.27 "Hg (Oct 2, 6:20 am)
Low27 °F (Oct 4, 9:20 pm)42% (Oct 4, 2:50 pm)29.24 "Hg (Oct 11, 7:20 pm)
Average40 °F78%29.77 "Hg
* Reported Oct 2 6:20 am — Oct 17 6:50 am, Rørvik. Weather by CustomWeather, © 2019

Note: Actual official high and low records may vary slightly from our data, if they occured in-between our weather recording intervals... More about our weather records

Advertising

Rørvik Weather History for the Previous 24 Hours

Scroll right to see more
 ConditionsComfort  
Time TempWeatherWind HumidityBarometerVisibility
6:50 am
Thu, Oct 17
43 °FLight rain. Passing clouds.16 mph76%29.74 "HgN/A
6:20 am43 °FLight rain. Passing clouds.15 mph76%29.74 "HgN/A
9:50 pm
Wed, Oct 16
45 °FClear.16 mph71%29.83 "Hg10 mi
9:20 pm45 °FClear.14 mph71%29.83 "Hg10 mi
8:50 pm45 °FClear.13 mph71%29.83 "Hg10 mi
7:50 pm45 °FClear.13 mph71%29.83 "Hg10 mi
6:50 pm45 °FClear.10 mph71%29.83 "Hg10 mi
6:20 pm45 °FPassing clouds.12 mph71%29.83 "HgN/A
5:50 pm46 °FPassing clouds.15 mph66%29.83 "HgN/A
4:50 pm46 °FPassing clouds.15 mph66%29.83 "HgN/A
4:20 pm46 °FSunny.17 mph66%29.83 "Hg10 mi
1:50 pm46 °FPassing clouds.10 mph66%29.86 "HgN/A
1:20 pm46 °FPassing clouds.12 mph66%29.86 "HgN/A
12:50 pm46 °FPassing clouds.12 mph66%29.89 "HgN/A
12:20 pm46 °FPassing clouds.9 mph66%29.89 "HgN/A
11:50 am46 °FSunny.10 mph66%29.89 "Hg10 mi
11:20 am45 °FSunny.9 mph71%29.89 "Hg10 mi
10:50 am43 °FPassing clouds.7 mph76%29.89 "HgN/A
10:20 am43 °FPassing clouds.6 mph71%29.89 "HgN/A
9:50 am41 °FSunny.7 mph76%29.89 "Hg10 mi
9:20 am39 °FSunny.7 mph81%29.89 "Hg10 mi
8:50 am37 °FSunny.7 mph81%29.89 "Hg10 mi
8:20 am37 °FSunny.6 mph81%29.89 "Hg10 mi
Weather by CustomWeather, © 2019

See weather overview